Weather History for Philip, SD

Change the Weather History Date:

Tuesday, February 19, 2013

  Actual Average Record
Temperature  
Mean Temperature 14 °F 26 °F  
Max Temperature 22 °F 39 °F 70 °F (1965)
Min Temperature 5 °F 14 °F -13 °F (1959)
Degree Days  
Heating Degree Days 51 39  
Month to date heating degree days 636 766  
Since 1 July heating degree days 4671 5031  
Cooling Degree Days 0 0  
Month to date cooling degree days 0 0  
Year to date cooling degree days 0 0  
Moisture  
Dew Point 2 °F    
Average Humidity 62    
Maximum Humidity 84    
Minimum Humidity 39    
Precipitation  
Precipitation T in 0.02 in 0.13 in (1952)
Month to date precipitation 0.09 0.24  
Year to date precipitation 0.62 0.54  
Sea Level Pressure  
Sea Level Pressure 30.32 in    
Wind  
Wind Speed 11 mph (ENE)    
Max Wind Speed 23 mph    
Max Gust Speed 26 mph    
Visibility 10 miles    
Events Snow    
T = Trace of Precipitation, MM = Missing Value Source: NWS Daily Summary

Daily Weather History Graph

Daily Weather History Graph

Search for Another Location

Airport:

Trip Planner

Search our weather history database for the weather conditions in past years. The results will help you decide how hot, cold, wet, or windy it might be!

Date:

Astronomy

Feb. 19, 2013 Rise Set
Actual Time 6:39 AM MST 5:21 PM MST
Civil Twilight 6:09 AM MST 5:51 PM MST
Nautical Twilight 5:36 AM MST 6:24 PM MST
Astronomical Twilight 5:02 AM MST 6:58 PM MST
Moon 11:48 AM MST (2/19) 2:19 AM MST (2/19)
Length of Visible Light 11h 41m
Length of Day
10h 42m
Waxing Gibbous, 68% of the Moon is Illuminated
Feb 19
Waxing Gibbous
Feb 25
Full
Mar 4
Last Quarter
Mar 11
New
Mar 19
First Quarter

Hourly Weather History & Observations

Time (MST) Temp. Windchill Dew Point Humidity Pressure Visibility Wind Dir Wind Speed Gust Speed Precip Events Conditions
12:55 AM 10.9 °F -0.8 °F 7.0 °F 84% 30.29 in 10.0 mi North 8.1 mph - N/A   Clear
1:55 AM 10.0 °F 0.4 °F 6.1 °F 84% 30.30 in 10.0 mi North 5.8 mph - N/A   Clear
2:22 AM 8.6 °F 0.1 °F 5.0 °F 85% 30.22 in 10.0 mi NNE 4.6 mph - N/A   Mostly Cloudy
2:55 AM 8.1 °F 1.4 °F 3.9 °F 83% 30.33 in 10.0 mi ENE 3.5 mph - N/A   Mostly Cloudy
3:31 AM 6.8 °F - 1.4 °F 79% 30.25 in 10.0 mi Calm Calm - N/A   Scattered Clouds
3:46 AM 6.8 °F - 1.4 °F 79% 30.25 in 10.0 mi Calm Calm - N/A   Mostly Cloudy
3:55 AM 7.0 °F - 1.9 °F 80% 30.35 in 10.0 mi Calm Calm - N/A   Mostly Cloudy
4:28 AM 6.8 °F -0.1 °F 1.4 °F 79% 30.25 in 10.0 mi North 3.5 mph - N/A   Scattered Clouds
4:50 AM 6.8 °F -0.1 °F 1.4 °F 79% 30.25 in 10.0 mi NNW 3.5 mph - N/A   Mostly Cloudy
4:55 AM 6.1 °F -4.3 °F 1.9 °F 83% 30.36 in 10.0 mi North 5.8 mph - N/A   Mostly Cloudy
5:55 AM 7.0 °F 0.1 °F 1.9 °F 80% 30.38 in 10.0 mi ENE 3.5 mph - N/A   Overcast
6:55 AM 7.0 °F -3.3 °F 1.9 °F 80% 30.40 in 9.0 mi NNE 5.8 mph - 0.00 in Snow Light Snow
7:55 AM 6.1 °F -5.6 °F -0.0 °F 76% 30.41 in 10.0 mi North 6.9 mph - N/A   Overcast
8:51 AM 8.6 °F - 1.4 °F 73% 30.30 in 10.0 mi Calm Calm - N/A   Scattered Clouds
8:55 AM 10.0 °F - 3.9 °F 76% 30.41 in 10.0 mi Calm Calm - N/A   Partly Cloudy
9:25 AM 10.4 °F 2.2 °F 3.2 °F 73% 30.29 in 10.0 mi East 4.6 mph - N/A   Mostly Cloudy
9:43 AM 8.6 °F 0.1 °F 1.4 °F 73% 30.30 in 10.0 mi East 4.6 mph - N/A   Scattered Clouds
9:55 AM 10.0 °F 3.6 °F 3.0 °F 73% 30.41 in 10.0 mi Variable 3.5 mph - N/A   Partly Cloudy
10:55 AM 12.9 °F 1.6 °F 3.0 °F 65% 30.41 in 10.0 mi ESE 8.1 mph - N/A   Clear
11:55 AM 16.0 °F 3.6 °F 3.0 °F 57% 30.39 in 10.0 mi ESE 10.4 mph - N/A   Clear
12:55 PM 18.0 °F 4.8 °F 1.9 °F 50% 30.34 in 10.0 mi East 12.7 mph 18.4 mph N/A   Clear
1:55 PM 19.9 °F 6.7 °F 1.0 °F 44% 30.31 in 10.0 mi East 13.8 mph - N/A   Clear
2:55 PM 21.0 °F 8.1 °F -0.0 °F 40% 30.31 in 10.0 mi East 13.8 mph - N/A   Clear
3:55 PM 19.9 °F 5.2 °F 1.0 °F 44% 30.29 in 10.0 mi East 17.3 mph - N/A   Clear
5:55 PM 15.1 °F 0.5 °F -0.0 °F 51% 30.31 in 10.0 mi ESE 13.8 mph - N/A   Clear
6:55 PM 12.9 °F -4.4 °F -0.0 °F 56% 30.30 in 10.0 mi East 18.4 mph 25.3 mph N/A   Clear
7:55 PM 10.9 °F -7.0 °F 1.0 °F 64% 30.31 in 10.0 mi East 18.4 mph - N/A   Clear
8:55 PM 9.0 °F -9.0 °F 1.0 °F 70% 30.30 in 10.0 mi East 17.3 mph - N/A   Clear
9:55 PM 9.0 °F -9.0 °F 1.0 °F 70% 30.30 in 10.0 mi East 17.3 mph - N/A   Clear
10:55 PM 9.0 °F -7.9 °F 1.0 °F 70% 30.30 in 10.0 mi East 15.0 mph 25.3 mph N/A   Clear
11:55 PM 9.0 °F -9.0 °F 1.0 °F 70% 30.28 in 10.0 mi ESE 17.3 mph - N/A   Clear